Regional Weather Roundup
Issued by NWS

Home | Current Version | Previous Version | Graphics & Text | Print | Product List | Glossary On
Versions: 1 2 3 4 5 6 7 8 9 10 11 12 13 14 15 16 17 18 19 20 21 22 23 24 25 26 27 28 29 30 31 32 33 34 35 36 37 38 39 40 41 42 43 44 45 46 47 48 49 50
000
ASUS43 KMPX 071210
RWRMN
WEATHER ROUNDUP FOR MINNESOTA
NATIONAL WEATHER SERVICE TWIN CITIES/CHANHASSEN MN
600 AM CST WED DEC 07 2016


NOTE: "FAIR" INDICATES FEW OR NO CLOUDS BELOW 12,000 FEET WITH NO
SIGNIFICANT WEATHER AND/OR OBSTRUCTIONS TO VISIBILITY. N/A MEANS
CURRENT SKY AND/OR WEATHER CONDITIONS ARE NOT AVAILABLE.

MNZ060>063-068>070-071300-
   Twin Cities Metro

CITY           SKY/WX    TMP DP  RH WIND       PRES   REMARKS
TWIN CITIES    FLURRIES  17   9  70 W18       29.97R WCI   1
6HR MIN TEMP:  17; 6HR MAX TEMP:  18; 6HR PCP: TRACE;

ST PAUL        CLOUDY    18  52 100 W15G24    29.98R WCI   4
CRYSTAL        CLOUDY    17   7  64 W21G29    29.94R WCI   0
BLAINE         FLURRIES  19  10  68 W18G26    29.93R WCI   4
LAKEVILLE      CLOUDY    14   9  79 W14G23    29.97R WCI  -1
EDEN PRAIRIE   CLOUDY    16   8  71 W13G26    29.97R WCI   2
6HR MIN TEMP:  16; 6HR MAX TEMP:  18; 6HR PCP: TRACE;

SOUTH ST PAUL  CLOUDY    18  10  72 W13G21    29.97R WCI   4
LAKE ELMO      FLURRIES  19  12  73 W17G25    29.95R WCI   4
$$
MNZ001>005-007-008-013>017-022>024-027-028-071300-
   Northwest Minnesota

CITY           SKY/WX    TMP DP  RH WIND       PRES   REMARKS
BEMIDJI        LGT SNOW  14  10  85 W20G30    29.72R WCI  -3
HALLOCK        LGT SNOW  18  16  93 NW28G35   29.77R WCI  -1
ROSEAU         CLOUDY    21  18  86 W18G26    29.66R WCI   6
WARROAD        CLOUDY    21  18  86 W10       29.63R WCI  10
THIEF RVR FALL LGT SNOW  14  11  87 W24G31    29.78R FOG     WCI  -5
CROOKSTON      LGT SNOW  16  12  86 NW28G36   29.84R VSB 1   WCI  -4
FOSSTON        LGT SNOW  12  10  92 W22G28    29.79R WCI  -7
DETROIT LAKES  LGT SNOW  12  10  92 W21G28    29.86R WCI  -6
MOORHEAD       CLOUDY    12   7  79 W24       29.93R WCI  -8
PARK RAPIDS    LGT SNOW  13   7  77 W20       29.78R WCI  -5
$$
MNZ006-009>011-018-025>026-071300-
   North Central Minnesota

CITY           SKY/WX    TMP DP  RH WIND       PRES   REMARKS
BAUDETTE       CLOUDY    21  17  84 W15G26    29.59R WCI   8
FLAG ISLAND    LGT SNOW  25  21  86 NW18      29.59R WCI  11
INTL FALLS     LGT SNOW  22  19  89 W9G17     29.55R VSB 3/4 WCI  12
6HR MIN TEMP:  19; 6HR MAX TEMP:  24; 6HR PCP:  0.12;

WASKISH        FLURRIES  19  18  93 W23G32    29.65R WCI   2
BIG FORK       FLURRIES  18  14  86 W12G18    29.63R WCI   5
LONGVILLE      FLURRIES  16   9  73 W12G20    29.74R WCI   3
GRAND RAPIDS   LGT SNOW  17  13  84 W13G22    29.70R FOG     WCI   4
CRANE LAKE     LGT SNOW  21  19  93 SW5       29.57R WCI  15
COOK           LGT SNOW  18  16  93 SW13      29.59R WCI   4
$$
MNZ012-019>021-037-071300-
   Northeast Minnesota

CITY           SKY/WX    TMP DP  RH WIND       PRES   REMARKS
DULUTH         LGT SNOW  15  11  83 W21G30    29.65R FOG     WCI  -2
6HR MIN TEMP:  15; 6HR MAX TEMP:  20; 6HR PCP: TRACE;

ELY            LGT SNOW  19  18  93 SW12G18   29.55R WCI   7
HIBBING        LGT SNOW  16  13  88 W9        29.62R FOG     WCI   4
EVELETH        LGT SNOW  19  15  85 W13G18    29.62R WCI   5
DULUTH HARBOR  MOCLDY    21  16  79 SW16      29.73R WCI   7
TWO HARBORS    CLEAR     19  12  73 SW14G22   29.63R WCI   6
SILVER BAY     FLURRIES  18  14  86 SW7       29.60R WCI   8
GRAND MARAIS     N/A     27  21  78 W9G22     29.58R WCI  18
G MARAIS ARPRT LGT SNOW  18  14  86 SW7       29.49R WCI   8
$$
MNZ029>031-032-039>041-046>048-054>057-064-071300-
   West Central Minnesota

CITY           SKY/WX    TMP DP  RH WIND       PRES   REMARKS
FERGUS FALLS   CLOUDY    10   7  85 W23       30.00R FOG     WCI -10
WHEATON        CLOUDY    14   9  79 W18G26    30.04R WCI  -3
MORRIS         LGT SNOW  12   7  79 W29G37    29.99R WCI  -9
ALEXANDRIA     LGT SNOW  11   7  84 W23G32    29.93R FOG     WCI  -9
ELBOW LAKE     LGT SNOW  11   7  84 NW25G35   29.98R WCI -10
WADENA         LGT SNOW  10   7  85 W15G21    29.85R WCI  -6
GLENWOOD       LGT SNOW  12   9  85 W24G32    29.94R WCI  -8
APPLETON       CLOUDY    16   7  67 W25       30.03R WCI  -3
BENSON         FLURRIES  16   9  73 NW22G30   30.00R WCI  -2
ORTONVILLE     CLOUDY    12   3  67 W22G31    30.03R WCI  -7
MADISON        PTCLDY    14   7  73 W22G29    30.06R WCI  -4
WILLMAR        FLURRIES  16  10  79 W24G30    30.00R WCI  -3
$$
MNZ033>034-036-042>043-049>051-058-059-071300-
   Central Minnesota

CITY           SKY/WX    TMP DP  RH WIND       PRES   REMARKS
ST CLOUD       FLURRIES  14   8  77 W24G33    29.92R WCI  -5
6HR MIN TEMP:  14; 6HR MAX TEMP:  17; 6HR PCP: TRACE;

PAYNESVILLE    CLOUDY    14   9  79 W21G30    29.96R WCI  -4
AITKIN         MIX PCPN  18   9  68 W14G25    29.76R WCI   4
PINE RIVER     CLOUDY    12   9  85 W13G18    29.81R WCI  -3
BRAINERD       CLOUDY    13   8  81 W15G26    29.82R WCI  -3
STAPLES        LGT SNOW  10   7  85 W21G28    29.85R WCI  -9
LONG PRAIRIE   LGT SNOW  12   9  85 SW17G26   29.90R WCI  -5
LITTLE FALLS   FLURRIES  14   9  79 W12G18    29.89R WCI   0
LITCHFIELD     CLOUDY    16  10  79 W18G24    29.97R WCI  -1
BUFFALO        CLOUDY    17  10  73 W18G28    29.96S WCI   0
MAPLE LAKE     FLURRIES  17  10  76 W16G25    29.95R WCI   1
HUTCHINSON     FLURRIES  15  10  80 W20G28    29.99R WCI  -2
$$
MNZ037-044-045-052-053-071300-
   East Central Minnesota

CITY           SKY/WX    TMP DP  RH WIND       PRES   REMARKS
PRINCETON      FLURRIES  16  10  79 SW16G24   29.90R WCI   0
MORA           MOCLDY    16   9  73 W15G21    29.87R WCI   1
CAMBRIDGE      FLURRIES  18   9  68 SW12G22   29.89R WCI   5
RUSH CITY      CLOUDY    16  10  79 W12G22    29.88R WCI   3
MOOSE LAKE     PTCLDY    18  10  73 W13G21    29.76R WCI   4
HINCKLEY       FLURRIES  18  12  79 SW20G25   29.84R WCI   1
CLOQUET        FLURRIES  16   9  73 SW17G25   29.70R WCI   0
MCGREGOR       CLOUDY    18  10  73 W9G20     29.75R WCI   6
$$
MNZ071>073-080-081-089-090-097-098-071300-
   Southwest Minnesota

CITY           SKY/WX    TMP DP  RH WIND       PRES   REMARKS
MONTEVIDEO     CLOUDY    14   7  73 NW18G25   30.05R WCI  -3
GRANITE FALLS  CLOUDY    15   8  75 W22G28    30.08R WCI  -3
CANBY          CLEAR     11   4  73 NW23G31   30.07R WCI  -8
MARSHALL       CLEAR     10   4  76 W25G31    30.06R WCI -11
REDWOOD FALLS  MOCLDY    12   4  70 W21G30    30.05R WCI  -7
OLIVIA         CLOUDY    16   9  73 W21G29    30.02R WCI  -2
PIPESTONE      CLEAR      9   3  78 NW22      30.07R WCI -11
WINDOM         CLEAR     10   3  72 W25       30.05R WCI -10
WORTHINGTON    CLEAR      8   3  80 W23       30.09R WCI -13
JACKSON        PTCLDY     9   3  78 W23G29    30.08R WCI -12
TRACY          CLEAR     11   5  79 W12G23    30.07R WCI  -4
SLAYTON        CLEAR      7   3  82 W28       30.05R WCI -15
$$
MNZ065>067-074>077-082>085-091>093-071300-
   South Central Minnesota

CITY           SKY/WX    TMP DP  RH WIND       PRES   REMARKS
MANKATO        PTCLDY    13   7  77 W22G28    30.04R WCI  -6
NEW ULM        CLEAR     10   5  79 W23       30.05R WCI -10
ST JAMES       CLEAR     12   7  79 W20G28    30.07R WCI  -6
FAIRMONT       CLEAR     11   6  81 W18       30.08R WCI  -7
GLENCOE        CLOUDY    16  11  82 W14G24    29.99R WCI   1
FARIBAULT      CLOUDY    16   9  73 W17G24    30.01S WCI   0
OWATONNA       CLOUDY    16   9  73 W20G25    30.01S WCI  -1
WASECA         PTCLDY    14  10  85 W20       30.04S WCI  -3
ALBERT LEA     CLEAR     16  10  79 W14G22    30.03R WCI   1
$$
MNZ078>079-086>088-094>096-071300-
   Southeast Minnesota

CITY           SKY/WX    TMP DP  RH WIND       PRES   REMARKS
ROCHESTER      FLURRIES  14   9  80 W24       29.99R WCI  -5
6HR MIN TEMP:  14; 6HR MAX TEMP:  16; 6HR PCP: TRACE;

RED WING       CLOUDY    18   9  68 W23G29    29.97R WCI   0
STANTON        CLOUDY    17  10  71 W15G25    29.99R WCI   3
DODGE CENTER   FLURRIES  14   9  79 W22       29.99R WCI  -4
WINONA         MOCLDY    19  12  73 W8G17     30.02R WCI   9
AUSTIN         MOCLDY    12   9  85 W17G23    30.03R WCI  -5
PRESTON        FLURRIES  13   8  80 W17       30.01R WCI  -4
$$
ABBREVIATIONS USED IN REMARKS
   TC - TEMPERATURES IN CELSIUS
  WCI - WIND CHILL INDEX
   HX - HEAT INDEX
  VSB - VISIBILITY
$$




USA.gov is the U.S. government's official web portal to all federal, state and local government web resources and services.